Content
SEND FEEDBACK

Daily
Averages
Monthly
Summary
Algeria

SIDI-BEL-ABBES, ALGERIA


Home > Africa > Algeria
Elevation: 1594 feet     Latitude: 35 10N     Longitude: 000 37W

WEATHER
 
SELECT A DAY
Number of Records: 468,720;   Date Range: 1/1/95 - 12/18/14
 
SHARE

PRINT THIS DATA

[ ← Previous Day ]
WEATHER ALMANAC - FEBRUARY 13, 2013
[ Next Day → ]
[ °C ]   °F
Weather ElementAverageHighLow
Temperature24.7 °F39.2 °F (12:13 pm)14 °F (6:53 am)
Dewpoint16.9 °F21.2 °F (9:13 am)10.4 °F (6:33 am)
Humidity74 %93 % (7:54 am)45 % (12:53 pm)
Barometer29.60 in29.63 in (1:53 am)29.57 in (9:33 am)
Wind Speed2.6 mph8.1 mph (2:13 pm)
Weather ElementAverage
Visibility10 mi
Wind DirectionSSE (151.9 °)

Weather ElementTotal
Precipitation---
Heating Degree Days38.4 (Base 65)
Averaged from 69 records on February 13, 2013
WEATHER CONDITIONS BREAKOUT
WIND DIRECTION BREAKOUT
WEATHER BY HOUR - FEBRUARY 13, 2013
[ °C ]   °F
Local TimeTemperatureDewpointHumidityBarometerVisibilityWind DirectionWind SpeedGust SpeedPrecipitationEventsConditions
12:33 AM23.0 °F15.8 °F74 %29.62 in10.0 miWNW (290°)4.6 mphClear
12:53 AM23.0 °F15.8 °F74 %29.62 in10.0 miWNW (300°)6.9 mphClear
1:13 AM21.2 °F15.8 °F80 %29.62 in10.0 miWNW (300°)6.9 mphScattered Clouds
1:33 AM21.2 °F15.8 °F80 %29.62 in10.0 miWNW (300°)5.8 mphMostly Cloudy
1:53 AM21.2 °F15.8 °F80 %29.63 in10.0 miWNW (290°)5.8 mphScattered Clouds
2:13 AM21.2 °F15.8 °F80 %29.62 in10.0 miNW (310°)5.8 mphClear
2:33 AM21.2 °F15.8 °F80 %29.62 in10.0 miWNW (300°)3.5 mphClear
2:53 AM21.2 °F15.8 °F80 %29.61 in10.0 miNW (310°)5.8 mphClear
3:13 AM21.2 °F15.8 °F80 %29.61 in10.0 miWNW (290°)5.8 mphClear
3:33 AM21.2 °F15.8 °F80 %29.61 in10.0 miWNW (300°)5.8 mphClear
3:53 AM21.2 °F15.8 °F80 %29.61 in10.0 miNW (310°)5.8 mphClear
4:13 AM21.2 °F15.8 °F80 %29.60 in10.0 miNW (310°)5.8 mphClear
4:33 AM19.4 °F15.8 °F86 %29.61 in10.0 miWest (260°)3.5 mphClear
4:53 AM19.4 °F15.8 °F86 %29.61 in10.0 miCalmClear
5:13 AM19.4 °F14.0 °F80 %29.60 in10.0 miCalmClear
5:33 AM17.6 °F12.2 °F79 %29.60 in10.0 miWSW (250°)3.5 mphClear
5:53 AM15.8 °F12.2 °F86 %29.60 in10.0 miCalmClear
6:13 AM15.8 °F12.2 °F86 %29.60 in10.0 miWSW (240°)3.5 mphClear
6:33 AM15.8 °F10.4 °F79 %29.59 in10.0 miCalmClear
6:53 AM14.0 °F10.4 °F86 %29.59 in10.0 miCalmClear
7:13 AM14.0 °F10.4 °F86 %29.59 in10.0 miCalmClear
7:33 AM15.8 °F10.4 °F79 %29.59 in10.0 miCalmClear
7:54 AM17.6 °F15.8 °F93 %29.59 in10.0 miWest (260°)3.5 mphClear
8:13 AM19.4 °F17.6 °F93 %29.59 in10.0 miWNW (290°)3.5 mphMostly Cloudy
8:33 AM21.2 °F17.6 °F86 %29.58 in10.0 miCalmOvercast
8:53 AM23.0 °F19.4 °F86 %29.58 in10.0 miCalmSnowLight Snow
9:13 AM26.6 °F21.2 °F80 %29.58 in10.0 miWest (280°)3.5 mphMostly Cloudy
9:33 AM30.2 °F21.2 °F69 %29.57 in10.0 miCalmScattered Clouds
9:54 AM30.2 °F19.4 °F64 %29.57 in10.0 miWest (270°)3.5 mphClear
10:13 AM33.8 °F21.2 °F60 %29.57 in10.0 miWest (270°)4.6 mphClear
10:33 AM33.8 °F19.4 °F56 %29.57 in10.0 miWSW (250°)6.9 mphClear
11:13 AM35.6 °F19.4 °F52 %29.57 in10.0 miWest (270°)5.8 mphClear
11:33 AM37.4 °F21.2 °F52 %29.57 in10.0 miWest (280°)3.5 mphClear
11:53 AM37.4 °F19.4 °F48 %29.57 in10.0 miNW (310°)4.6 mphClear
12:13 PM39.2 °F21.2 °F49 %29.57 in10.0 miCalmClear
12:53 PM39.2 °F19.4 °F45 %29.57 in10.0 miWNW (290°)6.9 mphClear
1:13 PM39.2 °F19.4 °F45 %29.57 in10.0 miNW (310°)4.6 mphClear
1:34 PM39.2 °F19.4 °F45 %29.57 in10.0 miNNW (340°)6.9 mphClear
1:53 PM37.4 °F19.4 °F48 %29.57 in10.0 miNNW (330°)6.9 mphClear
2:13 PM35.6 °F19.4 °F52 %29.57 in10.0 miNorth (360°)8.1 mphClear
2:33 PM32.0 °F19.4 °F60 %29.57 in10.0 miNNW (330°)5.8 mphClear
2:53 PM30.2 °F19.4 °F64 %29.57 in10.0 miNNW (340°)5.8 mphClear
3:14 PM30.2 °F17.6 °F60 %29.57 in10.0 miNorth (350°)5.8 mphClear
3:33 PM30.2 °F17.6 °F60 %29.58 in10.0 miNW (310°)3.5 mphClear
3:53 PM28.4 °F17.6 °F64 %29.58 in10.0 miNNW (340°)3.5 mphScattered Clouds
4:13 PM28.4 °F17.6 °F64 %29.58 in10.0 miCalmScattered Clouds
4:33 PM28.4 °F17.6 °F64 %29.59 in10.0 miNNW (340°)4.6 mphScattered Clouds
4:53 PM28.4 °F17.6 °F64 %29.59 in10.0 miCalmClear
5:13 PM26.6 °F17.6 °F69 %29.60 in10.0 miCalmClear
5:33 PM26.6 °F17.6 °F69 %29.60 in10.0 miCalmClear
5:53 PM24.8 °F17.6 °F74 %29.60 in10.0 miCalmClear
6:13 PM24.8 °F17.6 °F74 %29.61 in10.0 miCalmScattered Clouds
6:33 PM23.0 °F17.6 °F80 %29.61 in10.0 miCalmScattered Clouds
6:53 PM23.0 °F19.4 °F86 %29.61 in10.0 miCalmClear
7:13 PM21.2 °F17.6 °F86 %29.61 in10.0 miCalmClear
7:33 PM21.2 °F17.6 °F86 %29.61 in10.0 miCalmClear
7:53 PM21.2 °F17.6 °F86 %29.61 in10.0 miCalmClear
8:13 PM21.2 °F17.6 °F86 %29.61 in10.0 miCalmClear
8:33 PM23.0 °F17.6 °F80 %29.61 in10.0 miCalmClear
8:53 PM23.0 °F17.6 °F80 %29.61 in10.0 miCalmClear
9:13 PM21.2 °F17.6 °F86 %29.62 in10.0 miCalmMostly Cloudy
9:33 PM21.2 °F15.8 °F80 %29.62 in10.0 miCalmMostly Cloudy
9:53 PM21.2 °F15.8 °F80 %29.62 in10.0 miCalmScattered Clouds
10:13 PM21.2 °F15.8 °F80 %29.62 in10.0 miCalmClear
10:33 PM21.2 °F17.6 °F86 %29.62 in10.0 miCalmClear
10:53 PM21.2 °F15.8 °F80 %29.62 in10.0 miCalmClear
11:13 PM19.4 °F15.8 °F86 %29.62 in10.0 miCalmClear
11:33 PM19.4 °F15.8 °F86 %29.62 in10.0 miCalmClear
11:53 PM19.4 °F14.0 °F80 %29.63 in10.0 miCalmClear
Hourly data recorded from KBFW, located miles away from Sidi-bel-abbes, Algeria







STORIES FROM OUR PARTNERS